Back to catalog

USA 283

AliveMilitaryGEO
NORAD 43339·PAYLOAD·🇺🇸 United States

Launched Apr 14, 2018 from Cape Canaveral Space Force Station

Loading…

TLE

FreshSource: Space-Track

Epoch: Sep 14, 2026, 12:43 UTC

1 43339U 18036A   26257.53041537  .00000000  00000-0  00000+0 0  9999
2 43339   0.0162 153.2057 0000107 321.3235 203.9934  1.00272753 26187

Track USA 283 in real time with AllMySat

Download on the App Store